Regional Weather Roundup
Issued by NWS Charleston, WV

Home | Current Version | Previous Version | Text Only | Print | Product List | Glossary Off
Versions: 1 2 3 4 5 6 7 8 9 10 11 12 13 14 15 16 17 18 19 20 21 22 23 24 25 26 27 28 29 30 31 32 33 34 35 36 37 38 39 40 41 42 43 44 45 46 47 48 49 50

000
ASUS41 KRLX 011110
RWRRLX
West Virginia Regional Weather Roundup
National Weather Service Charleston WV
700 AM EDT WED JUL 01 2015

Note: "fair" indicates few or no clouds below 12,000 feet with no
significant weather and/or obstructions to visibility.

WVZ003-011200-
Northern Panhandle of West Virginia

CITY           SKY/WX    TMP DP  RH WIND       PRES   REMARKS
WHEELING       CLOUDY    61  59  93 SW8       29.88S FOG
$$

WVZ009-011200-
Northwest West Virginia

CITY           SKY/WX    TMP DP  RH WIND       PRES   REMARKS
PARKERSBURG    NOT AVBL
$$

WVZ006-011200-
Western West Virginia

CITY           SKY/WX    TMP DP  RH WIND       PRES   REMARKS
HUNTINGTON     PTCLDY    60  60 100 CALM      29.91R
$$

WVZ015-011200-
West Central West Virginia

CITY           SKY/WX    TMP DP  RH WIND       PRES   REMARKS
CHARLESTON     MOCLDY    59  58  96 CALM      29.93R FOG
$$

WVZ022-031-011200-
North Central West Virginia

CITY           SKY/WX    TMP DP  RH WIND       PRES   REMARKS
CLARKSBURG     CLOUDY    62  59  90 SW6       29.92R
MORGANTOWN     CLOUDY    63  57  81 S6        29.92R
$$

WVZ025-035-042-045-011200-
Southern West Virginia

CITY           SKY/WX    TMP DP  RH WIND       PRES   REMARKS
BECKLEY        CLEAR     59  55  87 S7        30.01R
LOGAN          CLOUDY    61  59  94 CALM      29.93R FOG
BLUEFIELD      PTCLDY    61  56  83 W7        30.02R
LEWISBURG      PTCLDY    58  57  94 CALM      30.00R
$$

WVZ047-011200-
Northern Mountains of West Virginia

CITY           SKY/WX    TMP DP  RH WIND       PRES   REMARKS
ELKINS         CLOUDY    60  56  86 CALM      29.97R
$$

WVZ052-011200-
Eastern Panhandle of West Virginia

CITY           SKY/WX    TMP DP  RH WIND       PRES   REMARKS
MARTINSBURG    SUNNY     66  60  81 SW8       29.87R
PETERSBURG     MOSUNNY   64  56  77 SE5       29.91R
$$



USA.gov is the U.S. government's official web portal to all federal, state and local government web resources and services.